Location: Sternwarte ZA, Rosenfeld-Brittheim
(48.2889°N, 8.6789°E)
Time: 16:35:47
(UTC+02:00)

ISS - Pass Details

Date: 26 May 2020
Orbit: 417 x 420 km, 51.6° (Epoch: 25 May)

Event Time Altitude Azimuth Distance (km) Brightness Sun altitude
Rises 23:07:54 0° 291° (WNW) 2,368 1.0 -14.2°
Reaches altitude 10° 23:10:00 10° 292° (WNW) 1,502 -0.1 -14.3°
Maximum altitude 23:13:22 90° 238° (WSW) 424 -3.8 -14.6°
Enters shadow 23:15:06 27° 113° (ESE) 853 -2.7 -14.8°
